Marshfield, WI

10:44 AM CST on December 03, 2016 (GMT -0600)
Marshfield Municipal

Weather History for KMFI - August, 2013

Change the Weather History Date:

Sunday, August 18, 2013

  Actual Average Record
Temperature  
Mean Temperature 67 °F -  
Max Temperature 82 °F 79 °F 94 °F (1916)
Min Temperature 53 °F 55 °F 35 °F (1950)
Cooling Degree Days 2    
Growing Degree Days 17 (Base 50)    
Moisture  
Dew Point 55 °F    
Average Humidity 70    
Maximum Humidity 100    
Minimum Humidity 38    
Precipitation  
Precipitation 0.00 in - - ()
Sea Level Pressure  
Sea Level Pressure 30.15 in    
Wind  
Wind Speed 4 mph (SSW)    
Max Wind Speed 15 mph    
Max Gust Speed 20 mph    
Visibility 9 miles    
Events      
Averages and records for this station are not official NWS values.
T = Trace of Precipitation, MM = Missing Value Source: NWS Daily Summary

Daily Weather History Graph

Daily Weather History Graph

Search for Another Location

Airport or City:

Trip Planner

Search our weather history database for the weather conditions in past years. The results will help you decide how hot, cold, wet, or windy it might be!

Date:

Astronomy

Aug. 18, 2013 Rise Set
Actual Time 6:07 AM CDT 8:01 PM CDT
Civil Twilight 5:35 AM CDT 8:32 PM CDT
Nautical Twilight 4:57 AM CDT 9:10 PM CDT
Astronomical Twilight 4:15 AM CDT 9:52 PM CDT
Moon 6:09 PM CDT (8/18) 3:13 AM CDT (8/18)
Length of Visible Light 14h 56m
Length of Day
13h 54m
Waxing Gibbous, 92% of the Moon is Illuminated
Aug 18
Waxing Gibbous
Aug 20
Full
Aug 28
Last Quarter
Sep 5
New
Sep 12
First Quarter

Hourly Weather History & Observations

Time (CDT) Temp. Heat Index Dew Point Humidity Pressure Visibility Wind Dir Wind Speed Gust Speed Precip Events Conditions
12:54 AM 60.1 °F - 55.0 °F 83% 30.17 in 10.0 mi South 3.5 mph - N/A   Clear
1:54 AM 57.9 °F - 55.0 °F 90% 30.17 in 10.0 mi Calm Calm - N/A   Clear
2:54 AM 57.0 °F - 54.0 °F 89% 30.16 in 10.0 mi Calm Calm - N/A   Clear
3:54 AM 57.0 °F - 54.0 °F 89% 30.17 in 10.0 mi Calm Calm - N/A   Clear
4:54 AM 55.9 °F - 54.0 °F 93% 30.18 in 9.0 mi Calm Calm - N/A   Clear
5:40 AM 55.4 °F - 53.6 °F 94% 30.20 in 2.0 mi Calm Calm - N/A   Clear
5:49 AM 53.6 °F - 53.6 °F 100% 30.20 in 3.0 mi Calm Calm - N/A   Clear
5:54 AM 54.0 °F - 53.1 °F 97% 30.20 in 4.0 mi Calm Calm - N/A   Clear
6:54 AM 55.9 °F - 55.0 °F 97% 30.21 in 7.0 mi Calm Calm - N/A   Clear
7:54 AM 62.1 °F - 57.9 °F 86% 30.20 in 10.0 mi Calm Calm - N/A   Clear
8:54 AM 66.0 °F - 57.9 °F 75% 30.21 in 10.0 mi SW 4.6 mph - N/A   Clear
9:54 AM 72.0 °F - 57.9 °F 61% 30.20 in 10.0 mi SSW 5.8 mph - N/A   Clear
10:54 AM 75.0 °F - 55.9 °F 51% 30.19 in 10.0 mi SSW 6.9 mph - N/A   Clear
11:54 AM 77.0 °F - 54.0 °F 45% 30.18 in 10.0 mi SW 11.5 mph - N/A   Clear
12:54 PM 78.1 °F - 54.0 °F 43% 30.16 in 10.0 mi SSW 11.5 mph - N/A   Clear
1:54 PM 80.1 °F 80.0 °F 54.0 °F 40% 30.14 in 10.0 mi South 6.9 mph 16.1 mph N/A   Partly Cloudy
2:54 PM 81.0 °F 80.4 °F 53.1 °F 38% 30.12 in 10.0 mi SSW 15.0 mph 19.6 mph N/A   Clear
3:54 PM 81.0 °F 80.4 °F 53.1 °F 38% 30.11 in 10.0 mi South 11.5 mph 19.6 mph N/A   Clear
4:54 PM 80.1 °F 79.9 °F 53.1 °F 39% 30.11 in 10.0 mi SSW 8.1 mph - N/A   Clear
5:54 PM 78.1 °F - 53.1 °F 42% 30.10 in 10.0 mi SW 10.4 mph - N/A   Clear
6:54 PM 75.0 °F - 55.9 °F 51% 30.09 in 10.0 mi SW 6.9 mph - N/A   Clear
7:54 PM 70.0 °F - 57.0 °F 63% 30.08 in 10.0 mi Calm Calm - N/A   Clear
8:54 PM 66.9 °F - 57.0 °F 70% 30.09 in 10.0 mi WSW 4.6 mph - N/A   Clear
9:54 PM 64.0 °F - 55.9 °F 75% 30.08 in 10.0 mi SW 5.8 mph - N/A   Clear
10:54 PM 62.1 °F - 57.0 °F 84% 30.08 in 10.0 mi WSW 4.6 mph - N/A   Clear
11:54 PM 62.1 °F - 55.0 °F 78% 30.08 in 10.0 mi SW 5.8 mph - N/A   Clear